Home   Weather   Cottbus   Past weeks

Flag for Germany Past Weather in Cottbus, Brandenburg, Germany — Yesterday and Last 2 Weeks

Now
45 °F

Passing clouds.


Feels Like: 45 °F
Forecast: 49 / 71 °F
Wind: No wind

Location: Holzdorf

Current Time: Sep 27, 2016 at 5:37:54 AM

Latest Report: Sep 27, 2016 at 4:20 AM


Visibility: N/A

Pressure: 30.21 "Hg

Humidity: 100%

Dew Point: 45 °F

Location of CottbusLocation

Past Weather in Cottbus — Graph

°F

Cottbus Temperature Yesterday

Maximum temperature yesterday: 72 °F (at 4:20 PM)
Minimum temperature yesterday: 43 °F (at 5:20 AM)
Average temperature yesterday: 56 °F

High & Low Weather Summary for the Past Weeks

 TemperatureHumidityPressure
High90 °F (Sep 12, 3:20 PM)100% (Sep 12, 6:20 AM)30.30 "Hg (Sep 12, 6:20 AM)
Low41 °F (Sep 22, 7:20 AM)28% (Sep 15, 3:20 PM)29.83 "Hg (Sep 17, 4:20 AM)
Average61 °F71%30.07 "Hg
* Reported Sep 12 3:20 AM — Sep 27 3:20 AM, Cottbus, Weather by CustomWeather, © 2016

Note: Actual official high and low records may vary slightly from our data, if they occured in-between our weather recording intervals... More about our weather records

Advertising

Cottbus Weather History for the Previous 24 Hours

Scroll right to see more
 ConditionsComfort  
Time TempWeatherWind HumidityBarometerVisibility
3:20 AM
Tue, Sep 27
46 °FFog.No wind93%30.21 "HgN/A
2:20 AM46 °FFog.No wind93%30.21 "HgN/A
1:20 AM50 °FPassing clouds.1 mph88%30.21 "HgN/A
12:20 AM50 °FPassing clouds.1 mph94%30.21 "HgN/A
11:20 PM
Mon, Sep 26
52 °FPassing clouds.1 mph94%30.21 "HgN/A
10:20 PM54 °FPartly cloudy.1 mph88%30.21 "HgN/A
9:20 PM55 °FPassing clouds.No wind88%30.21 "HgN/A
8:20 PM57 °FPassing clouds.No wind82%30.18 "HgN/A
7:20 PM59 °FPassing clouds.2 mph82%30.18 "HgN/A
6:20 PM63 °FPartly sunny.2 mph73%30.15 "HgN/A
5:20 PM70 °FPartly sunny.1 mph50%30.15 "HgN/A
4:20 PM72 °FPartly sunny.2 mph47%30.15 "HgN/A
3:20 PM68 °FPartly sunny.1 mph53%30.15 "HgN/A
2:20 PM68 °FPartly sunny.6 mph60%30.18 "HgN/A
1:20 PM70 °FPartly sunny.2 mph53%30.15 "HgN/A
12:20 PM66 °FPartly sunny.5 mph60%30.15 "HgN/A
11:20 AM63 °FScattered clouds.2 mph68%30.15 "HgN/A
10:20 AM55 °FScattered clouds.2 mph82%30.18 "Hg6 mi
9:20 AM50 °FScattered clouds.5 mph100%30.18 "Hg4 mi
8:50 AM48 °FScattered clouds.2 mph100%30.15 "Hg4 mi
8:20 AM45 °FFog.2 mph100%30.15 "Hg2 mi
7:20 AM45 °FFog.2 mph93%30.15 "Hg2 mi
6:20 AM43 °FFog.1 mph100%30.12 "Hg5 mi
5:20 AM43 °FFog.1 mph100%30.12 "HgN/A
Weather by CustomWeather, © 2016

See weather overviewHow to use our weather pages